• In Belarus
  • List of Countries
  • For 7 days
  • Water Temperature
  • Satellite Maps
  • Weather Map
  • Weather Widgets
  • user-avatar
    Login

    Hourly Weather Posvirzh

    Today, 20 June, Thursday

    Time Temperature Precipitation Wind Pressure Humidity
    00:00 +20°C° 0 mm 1 mps 739 mmHg 90%
    01:00 +20°C° 0 mm 1 mps 739 mmHg 90%
    02:00 +19°C° 0 mm 1 mps 739 mmHg 89%
    03:00 +19°C° 0 mm 1 mps 739 mmHg 89%
    04:00 +19°C° 0 mm 1 mps 739 mmHg 89%
    05:00 +19°C° 0 mm 1 mps 739 mmHg 88%
    06:00 +20°C° 0 mm 1 mps 739 mmHg 85%
    07:00 +22°C° 0 mm 1 mps 739 mmHg 81%
    08:00 +23°C° 0 mm 1 mps 739 mmHg 78%
    09:00 +25°C° 0 mm 1 mps 739 mmHg 73%
    10:00 +26°C° 0 mm 1 mps 739 mmHg 69%
    11:00 +28°C° 0 mm 1 mps 739 mmHg 65%
    12:00 +28°C° 0 mm 2 mps 739 mmHg 63%
    13:00 +29°C° 0 mm 2 mps 739 mmHg 61%
    14:00 +29°C° 0 mm 2 mps 739 mmHg 59%
    15:00 +29°C° 0.2 mm 2 mps 738 mmHg 62%
    16:00 +29°C° 0.2 mm 2 mps 738 mmHg 65%
    17:00 +29°C° 0.2 mm 2 mps 738 mmHg 68%
    18:00 +27°C° 0.5 mm 2 mps 738 mmHg 73%
    19:00 +26°C° 0.5 mm 2 mps 738 mmHg 79%
    20:00 +24°C° 0.5 mm 1 mps 738 mmHg 84%
    21:00 +23°C° 0 mm 1 mps 738 mmHg 86%
    22:00 +23°C° 0 mm 1 mps 738 mmHg 88%
    23:00 +22°C° 0 mm 1 mps 739 mmHg 90%

    Tomorrow, 21 June, Friday

    Time Temperature Precipitation Wind Pressure Humidity
    00:00 +21°C° 0 mm 1 mps 739 mmHg 90%
    01:00 +21°C° 0 mm 1 mps 739 mmHg 91%
    02:00 +21°C° 0 mm 1 mps 739 mmHg 91%
    03:00 +20°C° 0 mm 1 mps 739 mmHg 92%
    04:00 +20°C° 0 mm 1 mps 739 mmHg 92%
    05:00 +20°C° 0 mm 1 mps 739 mmHg 92%
    06:00 +21°C° 0 mm 1 mps 739 mmHg 89%
    07:00 +23°C° 0 mm 1 mps 740 mmHg 86%
    08:00 +24°C° 0 mm 1 mps 740 mmHg 82%
    09:00 +25°C° 0.1 mm 1 mps 740 mmHg 78%
    10:00 +27°C° 0.1 mm 1 mps 740 mmHg 73%
    11:00 +28°C° 0.1 mm 1 mps 740 mmHg 69%
    12:00 +29°C° 0.3 mm 1 mps 740 mmHg 65%
    13:00 +29°C° 0.3 mm 1 mps 740 mmHg 61%
    14:00 +30°C° 0.3 mm 1 mps 739 mmHg 58%
    15:00 +29°C° 0.9 mm 2 mps 739 mmHg 64%
    16:00 +28°C° 0.9 mm 2 mps 739 mmHg 69%
    17:00 +27°C° 0.9 mm 3 mps 739 mmHg 75%
    18:00 +26°C° 0.5 mm 2 mps 739 mmHg 78%
    19:00 +25°C° 0.5 mm 2 mps 739 mmHg 81%
    20:00 +23°C° 0.5 mm 2 mps 739 mmHg 84%
    21:00 +22°C° 0 mm 1 mps 739 mmHg 83%
    22:00 +22°C° 0 mm 1 mps 739 mmHg 83%
    23:00 +19°C° 0 mm 0 mps 740 mmHg 82%

    Day after tomorrow, 22 June, Saturday

    Time Temperature Precipitation Wind Pressure Humidity
    00:00 +18°C° 0 mm 0 mps 740 mmHg 85%
    01:00 +20°C° 0 mm 1 mps 740 mmHg 87%
    02:00 +19°C° 0 mm 1 mps 740 mmHg 89%
    03:00 +19°C° 0 mm 1 mps 740 mmHg 90%
    04:00 +19°C° 0 mm 1 mps 740 mmHg 91%
    05:00 +19°C° 0 mm 1 mps 740 mmHg 92%
    06:00 +21°C° 0 mm 1 mps 740 mmHg 90%
    07:00 +21°C° 0 mm 2 mps 741 mmHg 88%
    08:00 +23°C° 0 mm 2 mps 741 mmHg 86%
    09:00 +25°C° 0.5 mm 2 mps 741 mmHg 82%
    10:00 +26°C° 0.5 mm 3 mps 741 mmHg 79%
    11:00 +27°C° 0.5 mm 3 mps 741 mmHg 75%
    12:00 +27°C° 0.8 mm 3 mps 740 mmHg 72%
    13:00 +28°C° 0.8 mm 2 mps 740 mmHg 70%
    14:00 +29°C° 0.8 mm 2 mps 740 mmHg 67%
    15:00 +28°C° 1.7 mm 2 mps 740 mmHg 73%
    16:00 +27°C° 1.7 mm 2 mps 740 mmHg 79%
    17:00 +26°C° 1.7 mm 2 mps 740 mmHg 84%
    18:00 +25°C° 0.6 mm 1 mps 740 mmHg 86%
    19:00 +24°C° 0.6 mm 1 mps 740 mmHg 87%
    20:00 +21°C° 0.6 mm 0 mps 740 mmHg 88%
    21:00 +20°C° 0.1 mm 0 mps 740 mmHg 89%
    22:00 +20°C° 0.1 mm 0 mps 740 mmHg 90%
    23:00 +19°C° 0.1 mm 0 mps 740 mmHg 91%

    23 June, Sunday

    Time Temperature Precipitation Wind Pressure Humidity
    00:00 +18°C° 0 mm 0 mps 740 mmHg 92%
    01:00 +18°C° 0 mm 0 mps 740 mmHg 92%
    02:00 +20°C° 0 mm 1 mps 740 mmHg 93%
    03:00 +19°C° 0 mm 1 mps 740 mmHg 94%
    04:00 +17°C° 0 mm 0 mps 740 mmHg 95%
    05:00 +17°C° 0 mm 0 mps 740 mmHg 95%
    06:00 +21°C° 0 mm 1 mps 740 mmHg 93%
    07:00 +22°C° 0 mm 1 mps 740 mmHg 90%
    08:00 +23°C° 0 mm 1 mps 740 mmHg 87%
    09:00 +24°C° 0.7 mm 1 mps 740 mmHg 83%
    10:00 +25°C° 0.7 mm 1 mps 741 mmHg 78%
    11:00 +27°C° 0.7 mm 1 mps 741 mmHg 74%
    12:00 +27°C° 1 mm 2 mps 741 mmHg 74%
    13:00 +27°C° 1 mm 3 mps 741 mmHg 75%
    14:00 +27°C° 1 mm 4 mps 741 mmHg 75%
    15:00 +27°C° 1.6 mm 4 mps 741 mmHg 78%
    16:00 +26°C° 1.6 mm 3 mps 740 mmHg 81%
    17:00 +26°C° 1.6 mm 3 mps 740 mmHg 84%
    18:00 +25°C° 0.6 mm 3 mps 741 mmHg 86%
    19:00 +24°C° 0.6 mm 2 mps 741 mmHg 88%
    20:00 +23°C° 0.6 mm 1 mps 741 mmHg 90%
    21:00 +22°C° 0.1 mm 1 mps 741 mmHg 91%
    22:00 +22°C° 0.1 mm 1 mps 741 mmHg 93%
    23:00 +20°C° 0.1 mm 2 mps 742 mmHg 94%

    24 June, Monday

    Time Temperature Precipitation Wind Pressure Humidity
    00:00 +20°C° 0.4 mm 2 mps 742 mmHg 94%
    01:00 +19°C° 0.4 mm 2 mps 742 mmHg 95%
    02:00 +19°C° 0.4 mm 2 mps 742 mmHg 95%
    03:00 +19°C° 0 mm 2 mps 742 mmHg 96%
    04:00 +19°C° 0 mm 2 mps 742 mmHg 96%
    05:00 +19°C° 0 mm 2 mps 742 mmHg 96%
    06:00 +20°C° 0.1 mm 2 mps 743 mmHg 94%
    07:00 +20°C° 0.1 mm 2 mps 743 mmHg 92%
    08:00 +22°C° 0.1 mm 1 mps 743 mmHg 90%
    09:00 +23°C° 0.1 mm 2 mps 743 mmHg 88%
    10:00 +24°C° 0.1 mm 2 mps 744 mmHg 87%
    11:00 +24°C° 0.1 mm 3 mps 744 mmHg 85%
    12:00 +25°C° 0.1 mm 3 mps 744 mmHg 84%
    13:00 +25°C° 0.1 mm 3 mps 744 mmHg 84%
    14:00 +25°C° 0.1 mm 3 mps 744 mmHg 83%
    15:00 +25°C° 0.3 mm 3 mps 744 mmHg 83%
    16:00 +25°C° 0.3 mm 3 mps 744 mmHg 84%
    17:00 +25°C° 0.3 mm 3 mps 744 mmHg 84%
    18:00 +25°C° 0.7 mm 3 mps 744 mmHg 86%
    19:00 +24°C° 0.7 mm 2 mps 744 mmHg 89%
    20:00 +23°C° 0.7 mm 2 mps 744 mmHg 91%
    21:00 +23°C° 0.2 mm 2 mps 744 mmHg 92%
    22:00 +21°C° 0.2 mm 2 mps 745 mmHg 93%
    23:00 +20°C° 0.2 mm 2 mps 745 mmHg 94%

    25 June, Tuesday

    Time Temperature Precipitation Wind Pressure Humidity
    00:00 +20°C° 0 mm 2 mps 745 mmHg 95%
    01:00 +19°C° 0 mm 2 mps 745 mmHg 96%
    02:00 +19°C° 0 mm 2 mps 745 mmHg 97%
    03:00 +19°C° 0 mm 2 mps 745 mmHg 97%
    04:00 +19°C° 0 mm 2 mps 745 mmHg 98%
    05:00 +19°C° 0 mm 3 mps 745 mmHg 98%
    06:00 +19°C° 0 mm 3 mps 746 mmHg 97%
    07:00 +20°C° 0 mm 3 mps 746 mmHg 96%
    08:00 +20°C° 0 mm 3 mps 746 mmHg 95%
    09:00 +20°C° 0 mm 3 mps 746 mmHg 94%
    10:00 +20°C° 0 mm 3 mps 747 mmHg 93%
    11:00 +21°C° 0 mm 3 mps 747 mmHg 92%
    12:00 +21°C° 0 mm 3 mps 747 mmHg 91%
    13:00 +22°C° 0 mm 3 mps 747 mmHg 89%
    14:00 +22°C° 0 mm 3 mps 747 mmHg 88%
    15:00 +22°C° 0 mm 3 mps 747 mmHg 87%
    16:00 +24°C° 0 mm 3 mps 746 mmHg 85%
    17:00 +24°C° 0 mm 3 mps 746 mmHg 84%
    18:00 +24°C° 0 mm 3 mps 746 mmHg 86%
    19:00 +23°C° 0 mm 2 mps 747 mmHg 87%
    20:00 +23°C° 0 mm 2 mps 747 mmHg 89%
    21:00 +21°C° 0.1 mm 2 mps 747 mmHg 91%
    22:00 +20°C° 0.1 mm 2 mps 747 mmHg 93%
    23:00 +20°C° 0.1 mm 2 mps 747 mmHg 94%
    Show more